GFSFLT1_850_temp_273.txt.gz
Temp
30 28 28 27 26 25 24 23 23 22 21 21 21 20 20 20 20 20 20 20 19 18 18 18 17 17 18 18 19 18 17 17 17
31 28 28 27 26 25 24 23 23 22 22 21 20 20 20 20 20 19 19 19 19 18 18 18 18 18 18 18 18 18 18 18 18
30 29 27 27 26 25 24 24 23 22 22 22 21 20 20 20 20 20 19 19 19 19 18 18 18 18 17 17 17 18 18 17 17
30 28 27 26 26 25 24 23 23 22 22 21 21 20 21 20 20 20 19 20 20 20 20 20 20 19 17 17 16 16 17 16 16
30 29 28 27 26 25 24 23 22 22 21 21 21 20 21 20 20 20 20 21 21 21 20 20 19 18 16 15 16 16 16 16 15
29 29 28 27 26 25 24 23 23 22 21 22 21 21 21 21 20 21 21 21 21 21 20 19 19 17 16 16 16 16 16 16 15
27 27 28 27 26 25 24 24 23 22 21 21 21 21 21 21 20 20 20 21 20 20 20 19 18 17 16 16 16 14 14 15 15
28 27 28 27 26 26 25 24 23 22 22 22 22 21 21 21 20 20 20 20 21 20 20 19 18 17 16 16 15 15 14 14 14
28 28 28 28 27 26 25 24 24 23 22 22 21 21 20 20 19 19 19 20 20 20 19 19 18 17 17 15 15 14 14 14 14
31 30 29 28 28 27 26 25 24 23 22 22 21 20 20 20 19 19 19 19 19 19 18 18 17 17 16 15 14 14 14 14 14
31 31 29 29 28 27 26 25 24 24 23 22 21 20 20 20 18 18 18 19 18 18 17 17 16 16 16 15 15 14 14 13 14
29 29 29 29 29 28 27 25 25 23 22 21 20 20 19 19 18 17 17 17 18 18 17 17 16 16 15 14 15 14 13 13 14
27 27 29 29 29 28 25 22 23 22 21 21 20 19 18 19 17 18 18 19 18 17 16 16 15 14 14 14 14 14 14 14 14
25 25 26 28 27 24 22 19 14 13 21 21 20 19 19 18 17 18 16 16 16 16 16 16 15 15 14 14 14 14 14 14 14
25 24 23 24 23 20 21 22 17 14 14 17 19 17 16 15 15 15 15 16 16 16 16 15 15 15 15 15 15 15 14 14 14
23 22 21 21 22 23 22 20 16 13 13 17 17 18 16 16 15 15 16 16 16 15 15 15 15 15 15 15 15 15 14 14 14
20 18 18 18 18 19 19 18 17 18 17 17 17 17 15 16 16 15 15 15 15 14 15 15 15 15 14 15 15 15 15 14 14
20 18 17 17 15 15 15 17 17 16 16 15 15 15 15 15 15 15 16 16 15 15 15 15 15 15 15 15 15 15 15 14 14
20 18 17 17 16 16 15 15 16 15 15 15 15 16 16 15 15 16 16 16 16 16 16 16 16 16 16 15 16 15 15 15 14
18 18 17 17 17 18 16 15 15 15 15 15 15 15 15 16 16 16 17 16 16 17 16 16 16 16 15 15 15 15 14 14 13

GFSFLT1_850_temp_276.txt.gz
Temp
28 26 26 26 25 25 24 24 23 23 22 21 21 21 20 20 20 20 20 20 19 19 19 18 18 18 18 18 18 18 17 17 17
27 25 27 26 25 25 25 24 23 23 22 21 21 21 21 20 20 20 20 19 19 19 19 18 18 18 19 18 18 18 18 17 17
26 26 26 26 26 25 25 24 23 23 22 21 21 21 20 20 20 20 19 19 19 19 19 18 18 18 19 19 18 18 17 18 17
27 27 27 26 26 25 25 24 23 23 22 22 21 20 20 20 20 19 19 19 19 19 19 19 19 19 18 18 18 17 17 17 17
27 27 27 27 26 25 24 24 23 23 22 22 21 21 20 20 19 19 19 19 20 20 19 20 19 19 18 18 17 17 17 16 15
26 26 26 26 25 25 24 24 23 23 22 22 22 21 20 19 19 19 19 20 21 20 20 20 18 18 18 17 16 16 16 15 15
27 28 26 26 26 25 25 24 24 23 22 22 22 21 20 20 20 20 20 20 20 20 20 19 18 17 16 16 16 16 15 15 15
28 27 26 26 26 26 25 25 24 23 23 22 21 21 20 20 21 21 20 20 20 20 19 18 18 17 16 16 16 15 15 14 14
27 27 27 27 27 26 25 25 24 24 23 22 21 21 21 21 21 21 19 21 20 20 19 19 18 18 17 16 15 15 14 14 14
27 28 28 27 27 27 26 26 25 24 23 23 21 21 21 20 20 20 19 20 20 20 20 19 19 18 17 16 16 15 14 14 14
27 27 26 26 27 27 27 25 23 21 20 19 20 21 21 21 20 20 19 20 19 19 19 19 18 17 16 15 15 14 14 13 13
25 25 26 26 26 26 23 22 21 20 19 18 15 13 18 21 21 19 18 19 19 19 18 17 17 15 15 15 15 14 14 14 14
26 26 26 27 28 24 22 20 19 18 18 19 20 14 14 16 22 18 18 18 19 19 17 16 15 15 15 15 14 14 15 14 14
24 25 24 25 25 23 21 20 21 20 16 21 20 16 15 15 19 16 16 17 17 17 16 15 15 15 14 14 14 14 14 14 14
23 23 21 21 20 19 18 20 22 21 19 20 18 15 15 15 15 15 16 17 17 16 15 15 15 15 15 14 15 15 14 14 14
22 23 22 22 20 19 17 18 19 19 17 16 18 17 15 16 16 16 16 16 15 15 15 15 15 15 15 15 15 15 14 14 13
22 22 21 21 21 18 18 18 18 18 16 16 16 15 15 15 16 16 15 15 15 15 15 15 15 15 15 15 15 15 15 15 14
20 19 19 19 19 18 17 16 16 15 15 14 14 15 16 16 16 15 16 16 16 16 16 15 15 15 15 15 15 15 15 14 14
20 19 17 17 17 16 16 15 15 14 15 14 15 15 16 16 15 15 16 16 16 16 16 16 15 15 15 15 15 15 15 14 14
17 17 17 16 16 15 15 14 15 15 15 14 14 14 15 15 15 16 16 16 16 16 15 16 16 15 14 14 15 14 14 14 14

GFSFLT1_850_temp_279.txt.gz
Temp
27 26 25 25 25 24 24 23 23 23 22 22 21 21 20 20 20 20 20 20 20 19 19 18 17 17 17 17 17 17 17 17 17
27 27 25 25 26 25 25 24 24 23 23 22 21 21 21 20 20 20 20 20 19 19 18 18 17 17 17 17 17 18 18 17 17
27 26 25 24 25 25 25 25 24 23 23 22 22 21 21 20 20 19 19 20 19 19 18 18 18 17 17 18 17 17 17 17 17
28 27 26 24 25 26 25 25 24 23 23 22 21 21 21 20 20 20 20 19 19 18 18 18 18 18 17 17 16 17 17 17 16
29 28 27 26 25 26 26 25 24 23 23 22 22 22 21 21 20 20 20 20 20 20 20 19 19 19 19 18 17 17 16 15 15
28 29 26 25 26 26 26 25 24 24 23 22 22 22 21 20 21 20 20 20 20 20 21 21 20 19 18 17 17 16 16 16 16
29 28 26 26 27 26 26 25 25 24 23 22 22 22 21 21 20 21 20 20 20 21 21 21 20 19 19 17 17 16 15 15 14
26 26 26 26 27 27 26 25 25 24 23 23 22 22 21 21 20 20 19 19 21 21 21 20 20 19 18 16 16 15 15 14 14
25 27 27 27 27 27 26 25 25 24 22 21 21 21 20 20 20 21 19 19 20 21 21 20 19 19 19 18 16 15 15 14 14
24 24 24 24 24 25 23 22 23 23 22 21 21 19 19 19 19 21 21 18 19 19 21 20 19 18 17 17 16 15 15 14 14
26 26 26 26 26 25 24 22 21 21 20 19 19 17 16 16 17 17 16 16 17 19 19 19 19 18 16 16 15 14 14 14 14
25 25 26 26 27 26 25 24 22 21 20 19 17 18 20 15 15 16 16 15 14 16 18 18 18 17 16 16 15 14 14 14 13
24 25 26 27 27 26 23 22 21 21 20 18 20 19 19 17 17 18 16 17 15 15 17 16 17 16 16 16 15 14 14 14 14
24 24 24 25 25 23 22 21 19 19 19 18 19 17 16 16 17 19 19 19 15 13 16 17 16 16 15 15 15 14 14 14 14
22 22 22 22 21 20 19 18 18 17 17 16 15 15 17 16 17 14 13 13 17 13 15 16 16 15 15 15 15 14 14 14 14
21 21 21 21 20 18 17 17 17 16 15 16 16 15 15 14 14 13 13 13 13 14 15 16 16 15 15 15 14 14 14 14 14
21 21 21 21 19 18 18 18 17 17 16 16 15 15 15 14 15 14 14 15 16 15 15 16 15 15 15 15 15 15 15 15 15
20 19 19 18 17 16 16 16 15 15 14 14 14 15 15 14 15 15 15 15 16 16 16 15 15 15 15 15 15 15 15 15 14
18 18 18 17 17 16 15 14 14 14 14 14 14 14 14 15 15 15 15 16 16 16 15 15 15 15 15 15 15 15 15 15 15
17 17 16 16 15 15 14 14 14 15 15 15 15 14 14 15 15 15 15 15 16 15 15 15 15 15 15 14 14 14 14 14 14

GFSFLT1_850_temp_285.txt.gz
Temp
26 26 25 25 26 26 26 25 25 24 24 23 22 22 21 21 20 20 19 19 20 20 19 19 18 18 18 18 18 18 18 17 17
27 27 26 27 27 26 25 25 25 25 24 23 23 22 22 21 20 20 20 20 20 19 19 19 18 18 18 18 18 19 19 18 17
28 27 28 28 27 26 26 26 25 25 24 24 23 22 22 21 21 20 19 19 19 20 19 19 19 19 18 18 18 18 18 18 18
28 28 29 29 28 27 26 26 26 25 25 24 23 22 22 21 21 20 20 19 20 20 19 19 19 19 19 19 19 19 18 18 18
26 27 28 29 29 28 28 27 26 26 25 24 24 23 23 22 21 20 20 20 20 20 20 20 19 19 19 19 19 19 19 18 17
26 26 27 28 27 27 27 26 27 26 25 25 24 24 23 22 21 20 20 20 19 19 20 19 19 20 20 19 19 19 18 18 18
25 26 26 26 26 25 25 26 27 26 26 25 24 24 23 22 21 20 20 19 19 19 19 19 19 20 19 19 18 17 17 17 17
24 24 24 25 25 25 25 26 26 26 26 25 24 24 23 22 21 20 19 19 19 19 19 19 19 19 19 18 18 17 17 16 16
24 24 24 25 26 26 27 27 27 26 25 25 24 24 22 21 21 20 19 18 18 18 18 18 17 19 18 17 17 17 16 15 15
22 22 23 24 24 24 25 25 24 24 24 23 21 21 21 21 20 18 17 18 19 18 18 18 17 18 17 17 16 16 16 15 14
22 23 24 24 24 25 25 25 23 22 21 21 21 20 19 18 18 20 19 17 20 20 18 17 17 17 17 16 16 15 15 15 14
22 22 22 23 23 24 24 24 22 20 19 18 18 18 17 17 16 16 15 15 16 18 18 15 16 15 15 15 15 15 15 14 14
21 22 23 23 23 23 23 21 19 18 18 16 16 16 15 15 15 17 17 18 17 17 16 16 15 14 12 15 15 15 14 14 14
22 22 22 22 21 21 20 18 17 16 16 15 15 15 16 16 16 16 16 16 14 13 14 16 14 13 12 13 13 14 14 13 14
20 20 20 20 19 19 18 16 15 15 16 16 16 15 15 15 15 15 16 15 13 13 13 14 13 12 13 13 13 12 13 13 13
18 19 19 18 18 17 16 15 15 16 15 15 15 15 15 14 14 14 14 13 13 13 13 13 12 12 13 12 12 12 12 14 14
19 18 18 18 18 17 17 16 15 15 15 15 15 14 14 14 14 13 13 12 12 12 12 12 12 12 13 11 10 12 13 14 14
18 18 17 17 17 16 16 15 15 15 14 14 14 14 14 14 13 14 13 13 12 12 12 13 13 12 13 12 12 13 14 14 14
17 17 17 17 16 15 15 15 15 15 14 14 14 14 14 14 14 13 13 13 13 13 13 13 13 13 13 13 14 14 14 14 14
16 16 16 17 16 16 15 15 15 14 14 14 15 14 14 14 14 14 14 14 14 14 14 14 13 13 13 13 13 13 13 13 13

GFSFLT1_850_temp_288.txt.gz
Temp
31 31 31 30 28 26 25 24 23 23 22 23 23 23 22 22 21 19 19 19 19 19 19 19 18 18 17 18 18 18 19 17 17
32 31 30 29 28 26 25 24 24 25 23 24 21 21 22 22 22 21 20 19 19 19 19 19 18 17 18 19 19 19 19 17 17
32 31 30 29 28 27 25 24 24 23 24 24 23 22 21 21 21 21 20 19 19 19 19 18 19 19 19 19 19 20 19 17 17
32 31 30 29 28 27 26 25 24 23 24 24 24 22 22 21 20 20 19 19 19 19 18 19 20 20 20 20 20 19 19 18 17
31 30 30 29 27 26 26 25 25 24 24 23 23 22 22 21 20 20 20 19 19 18 18 18 19 19 20 20 20 20 19 19 16
29 29 28 28 27 26 26 25 25 25 24 24 24 23 22 22 21 20 20 20 19 19 18 18 18 19 19 19 19 19 19 18 17
29 28 27 28 27 26 25 25 24 24 24 24 24 23 22 22 21 21 20 20 19 19 18 18 19 19 19 19 19 19 18 18 17
28 28 28 27 27 25 24 24 23 22 22 22 22 21 21 20 20 20 19 19 18 18 18 18 18 17 18 19 18 16 16 17 17
27 27 26 25 25 24 24 23 22 21 21 21 20 20 20 20 19 19 18 18 18 19 19 19 19 19 19 18 16 16 17 16 15
26 25 23 23 22 22 21 22 21 21 21 20 19 19 19 19 19 18 20 20 19 19 20 19 19 18 18 18 18 16 17 17 15
24 22 22 21 21 22 23 21 21 20 19 19 19 18 17 17 17 17 16 18 17 17 17 15 16 17 16 15 15 16 16 15 15
22 21 20 20 19 19 20 19 20 20 19 18 17 17 17 17 16 16 16 16 16 16 16 16 14 15 16 15 14 15 16 14 13
21 20 19 18 17 17 18 18 18 18 17 17 16 17 16 16 16 17 16 16 17 15 15 15 15 14 14 14 14 15 16 15 13
20 19 18 18 20 20 17 16 16 16 16 16 16 17 16 16 16 15 16 17 16 16 14 14 14 14 14 14 14 14 13 14 12
20 19 18 18 17 17 16 15 15 15 16 15 16 15 15 14 15 14 14 14 15 14 14 14 14 14 13 13 12 12 12 12 12
19 20 17 17 16 15 15 14 15 15 14 15 14 14 14 14 14 14 13 13 13 13 13 13 13 12 12 12 12 12 11 11 11
19 18 17 17 16 15 15 14 14 14 14 14 15 14 14 15 13 14 14 12 12 12 12 12 12 12 12 11 11 11 11 11 11
18 17 16 16 16 15 16 16 14 14 14 14 14 14 14 14 14 15 14 14 13 12 13 12 13 12 12 12 12 11 11 11 12
17 16 15 16 15 15 15 14 14 14 14 14 14 14 14 15 14 14 14 13 14 13 13 12 12 12 12 12 12 12 12 12 12
17 16 14 14 14 13 13 14 15 15 14 13 13 13 14 14 14 14 14 13 13 12 13 13 13 12 12 12 12 12 12 12 12

GFSFLT1_850_temp_291.txt.gz
Temp
34 34 34 32 31 30 28 27 25 25 23 21 20 22 21 20 19 20 20 20 20 20 21 21 21 19 19 18 17 18 18 17 17
34 34 33 32 31 30 28 27 26 25 23 22 21 21 21 20 19 19 21 20 20 20 20 20 20 19 18 17 17 19 18 18 17
34 34 33 32 31 30 28 27 26 25 24 22 22 22 22 21 21 20 20 21 21 20 20 20 20 18 18 17 17 19 20 17 18
35 34 33 32 31 30 29 27 27 25 24 23 23 23 23 22 22 21 20 21 20 20 20 19 19 18 18 17 19 19 20 18 17
34 33 32 32 31 30 29 28 27 26 25 25 24 24 23 23 22 22 22 21 21 20 20 19 19 18 18 17 19 18 19 19 17
32 32 32 32 31 29 29 28 28 27 26 26 26 24 23 23 23 22 22 22 21 21 20 19 19 18 18 17 17 19 19 18 16
32 32 31 31 31 29 28 27 26 26 26 26 25 25 24 23 22 23 22 22 21 21 20 19 19 18 18 17 16 16 16 17 16
31 31 31 29 29 28 26 25 24 23 23 24 24 24 23 23 22 22 22 22 21 20 20 20 19 19 19 17 16 17 17 16 16
29 28 27 26 25 25 24 24 23 23 23 22 22 22 22 22 21 20 21 20 19 20 19 19 20 22 21 19 17 18 17 16 16
27 26 25 24 24 23 22 23 22 22 21 21 21 20 20 20 20 19 19 20 19 18 18 18 18 19 18 18 17 16 17 17 16
26 25 24 23 22 21 20 20 19 18 19 20 19 19 19 18 18 18 18 18 17 17 18 18 18 18 17 16 17 16 16 16 16
24 23 23 22 21 20 18 18 19 18 18 18 18 18 17 17 17 16 16 17 16 15 15 16 16 15 16 16 16 15 15 15 16
23 22 21 21 20 19 17 17 17 16 16 16 16 16 15 15 16 15 15 14 16 16 14 15 15 16 15 15 16 15 14 15 14
22 21 20 19 18 17 16 17 16 16 16 16 15 16 15 15 14 15 14 14 15 15 14 15 15 15 15 15 15 15 14 14 13
23 22 21 19 17 16 16 17 17 16 15 15 15 15 15 15 15 14 14 14 15 14 14 14 15 14 14 14 13 13 12 12 12
22 21 20 19 18 17 16 16 16 15 15 15 15 15 15 14 14 14 14 13 13 13 13 13 13 13 13 13 13 12 11 12 11
21 20 20 19 18 17 15 16 16 15 15 15 15 15 15 14 13 15 15 14 13 13 12 13 13 13 13 12 12 13 12 12 11
20 19 19 18 16 15 15 15 15 15 15 15 15 15 14 15 14 15 14 14 14 13 14 13 11 11 12 12 11 11 11 11 10
19 18 16 16 15 14 15 15 15 15 15 16 15 16 15 15 14 14 14 13 13 13 13 13 13 13 12 11 11 11 11 11 11
17 16 17 16 16 15 15 15 14 14 15 15 15 16 15 16 16 16 14 14 13 12 12 12 12 12 12 12 11 11 11 11 11